Regional Weather Roundup
Issued by NWS

Home | Current Version | Previous Version | Text Only | Print | Product List | Glossary On
Versions: 1 2 3 4 5 6 7 8 9 10 11 12 13 14 15 16 17 18 19 20 21 22 23 24 25 26 27
000
ASUS45 KSLC 270610
RWRUT

UTAH REGIONAL WEATHER ROUNDUP
NATIONAL WEATHER SERVICE SALT LAKE CITY UT
1200 AM MDT THU JUL 27 2017

UTZ001>011-023>025-270700-

NORTHERN UTAH

CITY           SKY/WX    TMP DP  RH WIND       PRES   REMARKS
BRIGHAM CITY   CLOUDY    74  56  54 S15       30.17R
HILL AFB       CLEAR     69  52  54 E9        30.20F
LOGAN          CLOUDY    70  54  56 S9        30.18S
OGDEN          CLOUDY    69  59  70 SE7       30.17F
SALT LAKE CITY CLOUDY    70  64  81 SW12      30.15F
TOOELE VALLEY  MOCLDY    72  55  56 S5        30.16F
WENDOVER       PTCLDY    70  52  52 E5        30.17S
HEBER CITY     CLOUDY    64  54  68 E10       30.26S
WEST JORDAN    CLOUDY    68  65  93 W9        30.21S

$$

UTZ011>015-024>027-270700-

CENTRAL/NORTHEAST UTAH

CITY           SKY/WX    TMP DP  RH WIND       PRES   REMARKS
PROVO AIRPORT  MOCLDY    68  60  75 S7        30.19F
MOAB/CANYONLAN CLEAR     75  64  68 CALM      30.11S
DELTA          PTCLDY    66  52  59 NW5       30.19S
PRICE          MOCLDY    69  60  73 N9        30.24F
ROOSEVELT      CLEAR     64  57  77 W3        30.23R
VERNAL         CLEAR     68  56  65 NW6       30.21S

$$

UTZ013>016-019>022-027-270700-

SOUTHERN UTAH

CITY           SKY/WX    TMP DP  RH WIND       PRES   REMARKS
BRYCE CANYON   CLEAR     56  53  90 W7        30.39F
CEDAR CITY     CLEAR     67  60  78 SE7       30.25R
MILFORD        PTCLDY    71  51  49 N6        30.20S
ST GEORGE      CLOUDY    82  68  62 SE5       30.04S
HANKSVILLE     CLEAR     77  61  57 NW3       30.14S
BLANDING       CLEAR     65  53  64 NW6       30.29S

$$

REGIONAL REPORTS     COLORADO/ARIZONA

CITY           SKY/WX    TMP DP  RH WIND       PRES   REMARKS
CRAIG, CO      PTCLDY    60  56  86 CALM      30.30R
GRAND JUNCTION CLEAR     76  56  49 N6        30.16R
RIFLE, CO      MOCLDY    70  61  73 E6        30.22R
MONTROSE, CO   CLEAR     70  57  63 SE9       30.27R
CORTEZ, CO     CLEAR     65  58  78 N5        30.23S
COLORADO CITY    N/A     70  66  88 CALM      30.22S
PAGE, AZ       PTCLDY    85  56  37 W7        30.11R
GRAND CANYON   CLEAR     61  57  87 CALM      30.33R
KINGMAN, AZ    CLEAR     77  68  73 S6        30.09R
FLAGSTAFF, AZ  CLEAR     59  57  93 CALM      30.36S

$$

REGIONAL REPORTS    NEVADA/IDAHO/WYOMING

CITY           SKY/WX    TMP DP  RH WIND       PRES   REMARKS
LAS VEGAS, NV  MOCLDY    92  62  36 N10       29.96R HX  92
ELY, NY          N/A    N/A N/A N/A MISG      30.28S
ELKO, NV       MOCLDY    70  50  49 S6        30.21R
POCATELLO, ID  PTCLDY    66  54  65 E10       30.19F
BURLEY, ID     CLOUDY    69  53  56 SW17G23   30.13S
FORT BRIDGER,    N/A     65  54  67 W6        30.37R
EVANSTON, WY   CLOUDY    64  53  67 SW16G30   30.37R
ROCK SPRINGS,  CLOUDY    62  54  74 S5        30.32R
KEMMERER, WY     N/A     61  50  67 W3        30.36R

$$




USA.gov is the U.S. government's official web portal to all federal, state and local government web resources and services.